Location: Oberwangen
(47.4286°N, 8.9679°E)
Time: 19:59:59
(UTC+00:00)

Cosmos 1953 Rocket - Pass Details

Date: 28 October 2021
Orbit: 603 x 635 km, 82.5° (Epoch: 03 December)

Event Time Altitude Azimuth Distance (km) Brightness Sun altitude
Rises 19:30:28 0° 336° (NNW) 2,940 7.6 -33.6°
Reaches altitude 10° 19:33:17 10° 318° (NW) 2,022 6.8 -34.1°
Maximum altitude 19:36:20 18° 275° (W) 1,535 6.2 -34.6°
Enters shadow 19:37:50 16° 250° (WSW) 1,659 6.2 -34.8°
